When you browse on this site, cookies collect data to enhance your experience and personalize the content and advertising you see.
Visit our Privacy Policy to learn more. By continuing to use the site, you agree to this use of cookies and data.
  • In Hungary
  • List of Countries
  • For 7 days
  • Water Temperature
  • Satellite Maps
  • Weather Map
  • News
  • Weather Widgets
  • user-avatar
    Login

    Hourly Weather Kaprun

    Today, 19 January, Saturday

    Time Temperature Precipitation Wind Pressure Humidity
    00:00 -18°C° 0 mm 2 mps 589 mmHg 68%
    01:00 -18°C° 0 mm 2 mps 589 mmHg 65%
    02:00 -17°C° 0 mm 2 mps 589 mmHg 67%
    03:00 -17°C° 0 mm 2 mps 589 mmHg 70%
    04:00 -17°C° 0 mm 2 mps 589 mmHg 72%
    05:00 -16°C° 0 mm 2 mps 589 mmHg 75%
    06:00 -16°C° 0 mm 2 mps 589 mmHg 78%
    07:00 -16°C° 0 mm 2 mps 589 mmHg 81%
    08:00 -15°C° 0 mm 2 mps 589 mmHg 82%
    09:00 -13°C° 0 mm 2 mps 590 mmHg 83%
    10:00 -12°C° 0 mm 2 mps 590 mmHg 84%
    11:00 -9°C° 0 mm 1 mps 591 mmHg 82%
    12:00 -7°C° 0 mm 1 mps 591 mmHg 81%
    13:00 -6°C° 0 mm 1 mps 591 mmHg 79%
    14:00 -7°C° 0 mm 1 mps 590 mmHg 82%
    15:00 -8°C° 0 mm 1 mps 590 mmHg 85%
    16:00 -8°C° 0 mm 0 mps 589 mmHg 89%
    17:00 -9°C° 0 mm 1 mps 589 mmHg 88%
    18:00 -11°C° 0 mm 1 mps 588 mmHg 87%
    19:00 -12°C° 0 mm 1 mps 588 mmHg 86%
    20:00 -12°C° 0 mm 1 mps 588 mmHg 85%
    21:00 -12°C° 0 mm 1 mps 588 mmHg 83%
    22:00 -14°C° 0 mm 2 mps 588 mmHg 81%
    23:00 -12°C° 0 mm 1 mps 588 mmHg 80%

    Tomorrow, 20 January, Sunday

    Time Temperature Precipitation Wind Pressure Humidity
    00:00 -12°C° 0 mm 1 mps 588 mmHg 79%
    01:00 -12°C° 0 mm 1 mps 588 mmHg 78%
    02:00 -12°C° 0 mm 1 mps 587 mmHg 78%
    03:00 -12°C° 0 mm 1 mps 587 mmHg 77%
    04:00 -13°C° 0 mm 1 mps 587 mmHg 77%
    05:00 -13°C° 0 mm 1 mps 587 mmHg 77%
    06:00 -14°C° 0 mm 1 mps 586 mmHg 77%
    07:00 -14°C° 0 mm 1 mps 586 mmHg 77%
    08:00 -13°C° 0 mm 1 mps 587 mmHg 77%
    09:00 -11°C° 0 mm 1 mps 588 mmHg 77%
    10:00 -10°C° 0 mm 1 mps 589 mmHg 78%
    11:00 -9°C° 0 mm 1 mps 589 mmHg 75%
    12:00 -8°C° 0 mm 1 mps 589 mmHg 72%
    13:00 -7°C° 0 mm 1 mps 590 mmHg 68%
    14:00 -8°C° 0 mm 1 mps 589 mmHg 74%
    15:00 -9°C° 0 mm 1 mps 589 mmHg 81%
    16:00 -10°C° 0 mm 1 mps 588 mmHg 87%
    17:00 -11°C° 0 mm 1 mps 588 mmHg 86%
    18:00 -12°C° 0 mm 1 mps 588 mmHg 85%
    19:00 -14°C° 0 mm 1 mps 588 mmHg 84%
    20:00 -14°C° 0 mm 1 mps 588 mmHg 80%
    21:00 -14°C° 0 mm 1 mps 589 mmHg 77%
    22:00 -14°C° 0 mm 1 mps 589 mmHg 73%
    23:00 -14°C° 0 mm 1 mps 589 mmHg 73%

    Day after tomorrow, 21 January, Monday

    Time Temperature Precipitation Wind Pressure Humidity
    00:00 -14°C° 0 mm 1 mps 589 mmHg 73%
    01:00 -14°C° 0 mm 1 mps 589 mmHg 73%
    02:00 -14°C° 0 mm 1 mps 589 mmHg 76%
    03:00 -14°C° 0 mm 1 mps 589 mmHg 79%
    04:00 -15°C° 0 mm 1 mps 589 mmHg 82%
    05:00 -15°C° 0 mm 1 mps 589 mmHg 84%
    06:00 -15°C° 0 mm 1 mps 589 mmHg 86%
    07:00 -15°C° 0 mm 1 mps 590 mmHg 89%
    08:00 -13°C° 0 mm 1 mps 591 mmHg 89%
    09:00 -12°C° 0 mm 1 mps 591 mmHg 89%
    10:00 -10°C° 0 mm 0 mps 592 mmHg 89%
    11:00 -10°C° 0 mm 1 mps 592 mmHg 88%
    12:00 -9°C° 0 mm 1 mps 592 mmHg 87%
    13:00 -8°C° 0 mm 1 mps 592 mmHg 86%
    14:00 -9°C° 0 mm 1 mps 592 mmHg 88%
    15:00 -9°C° 0 mm 1 mps 592 mmHg 90%
    16:00 -10°C° 0 mm 1 mps 591 mmHg 92%
    17:00 -11°C° 0 mm 1 mps 591 mmHg 92%
    18:00 -13°C° 0 mm 1 mps 590 mmHg 93%
    19:00 -15°C° 0 mm 1 mps 590 mmHg 93%
    20:00 -15°C° 0 mm 1 mps 589 mmHg 90%
    21:00 -16°C° 0 mm 1 mps 589 mmHg 86%
    22:00 -16°C° 0 mm 1 mps 589 mmHg 82%
    23:00 -16°C° 0 mm 1 mps 589 mmHg 76%

    22 January, Tuesday

    Time Temperature Precipitation Wind Pressure Humidity
    00:00 -16°C° 0 mm 1 mps 589 mmHg 70%
    01:00 -16°C° 0 mm 1 mps 589 mmHg 63%
    02:00 -17°C° 0 mm 1 mps 588 mmHg 61%
    03:00 -17°C° 0 mm 1 mps 588 mmHg 58%
    04:00 -17°C° 0 mm 1 mps 587 mmHg 55%
    05:00 -17°C° 0 mm 1 mps 587 mmHg 55%
    06:00 -18°C° 0 mm 2 mps 587 mmHg 54%
    07:00 -18°C° 0 mm 2 mps 586 mmHg 53%
    08:00 -16°C° 0 mm 2 mps 587 mmHg 56%
    09:00 -13°C° 0 mm 1 mps 587 mmHg 59%
    10:00 -11°C° 0 mm 1 mps 588 mmHg 62%
    11:00 -9°C° 0 mm 1 mps 588 mmHg 62%
    12:00 -9°C° 0 mm 2 mps 587 mmHg 62%
    13:00 -7°C° 0 mm 2 mps 587 mmHg 62%
    14:00 -8°C° 0 mm 2 mps 586 mmHg 67%
    15:00 -9°C° 0 mm 2 mps 585 mmHg 71%
    16:00 -10°C° 0 mm 2 mps 584 mmHg 76%
    17:00 -13°C° 0 mm 2 mps 582 mmHg 75%
    18:00 -15°C° 0 mm 2 mps 581 mmHg 74%
    19:00 -18°C° 0 mm 3 mps 580 mmHg 73%
    20:00 -18°C° 0 mm 3 mps 580 mmHg 73%
    21:00 -18°C° 0 mm 3 mps 579 mmHg 73%
    22:00 -18°C° 0 mm 3 mps 579 mmHg 73%
    23:00 -19°C° 0 mm 3 mps 578 mmHg 75%

    23 January, Wednesday

    Time Temperature Precipitation Wind Pressure Humidity
    00:00 -19°C° 0 mm 3 mps 578 mmHg 77%
    01:00 -18°C° 0 mm 2 mps 577 mmHg 79%
    02:00 -18°C° 0 mm 2 mps 577 mmHg 79%
    03:00 -18°C° 0 mm 2 mps 576 mmHg 78%
    04:00 -16°C° 0 mm 1 mps 576 mmHg 78%
    05:00 -16°C° 0 mm 1 mps 576 mmHg 77%
    06:00 -15°C° 0 mm 1 mps 576 mmHg 77%
    07:00 -14°C° 0 mm 1 mps 576 mmHg 76%
    08:00 -13°C° 0 mm 1 mps 576 mmHg 78%
    09:00 -14°C° 0 mm 2 mps 576 mmHg 81%
    10:00 -13°C° 0 mm 2 mps 577 mmHg 83%
    11:00 -12°C° 0.1 mm 2 mps 577 mmHg 83%
    12:00 -10°C° 0.1 mm 2 mps 576 mmHg 84%
    13:00 -9°C° 0.1 mm 2 mps 576 mmHg 84%
    14:00 -10°C° 0.2 mm 2 mps 576 mmHg 87%
    15:00 -9°C° 0.2 mm 1 mps 575 mmHg 90%
    16:00 -10°C° 0.2 mm 1 mps 575 mmHg 93%
    17:00 -11°C° 0.3 mm 1 mps 574 mmHg 94%
    18:00 -11°C° 0.3 mm 1 mps 574 mmHg 94%
    19:00 -12°C° 0.3 mm 1 mps 574 mmHg 95%
    20:00 -13°C° 0.4 mm 1 mps 573 mmHg 95%
    21:00 -13°C° 0.4 mm 1 mps 573 mmHg 95%
    22:00 -13°C° 0.4 mm 1 mps 572 mmHg 96%
    23:00 -13°C° 0.6 mm 1 mps 572 mmHg 96%

    24 January, Thursday

    Time Temperature Precipitation Wind Pressure Humidity
    00:00 -13°C° 0.6 mm 1 mps 572 mmHg 96%
    01:00 -13°C° 0.6 mm 1 mps 572 mmHg 96%
    02:00 -13°C° 0.4 mm 1 mps 573 mmHg 95%
    03:00 -13°C° 0.4 mm 1 mps 573 mmHg 94%
    04:00 -12°C° 0.4 mm 1 mps 573 mmHg 94%
    05:00 -13°C° 0.1 mm 1 mps 573 mmHg 92%
    06:00 -13°C° 0.1 mm 1 mps 574 mmHg 91%
    07:00 -13°C° 0.1 mm 1 mps 574 mmHg 90%
    08:00 -12°C° 0 mm 1 mps 574 mmHg 90%
    09:00 -12°C° 0 mm 1 mps 574 mmHg 89%
    10:00 -11°C° 0 mm 1 mps 575 mmHg 89%
    11:00 -12°C° 0.1 mm 2 mps 575 mmHg 90%
    12:00 -12°C° 0.1 mm 2 mps 575 mmHg 92%
    13:00 -13°C° 0.1 mm 3 mps 575 mmHg 93%
    14:00 -13°C° 0.4 mm 3 mps 575 mmHg 94%
    15:00 -14°C° 0.4 mm 3 mps 574 mmHg 95%
    16:00 -14°C° 0.4 mm 3 mps 574 mmHg 96%
    17:00 -14°C° 0.6 mm 2 mps 574 mmHg 96%
    18:00 -14°C° 0.6 mm 2 mps 574 mmHg 96%
    19:00 -12°C° 0.6 mm 1 mps 575 mmHg 96%
    20:00 -13°C° 0.1 mm 1 mps 575 mmHg 95%
    21:00 -13°C° 0.1 mm 1 mps 574 mmHg 94%
    22:00 -13°C° 0.1 mm 1 mps 574 mmHg 93%
    23:00 -13°C° 0.1 mm 1 mps 574 mmHg 93%
    Show more